Regional Weather Roundup
Issued by NWS Goodland, KS

Home | Current Version | Previous Version | Text Only | Print | Product List | Glossary Off
Versions: 1 2 3 4 5 6 7 8 9 10 11 12 13 14 15 16 17 18 19 20 21 22 23 24 25 26 27 28 29 30 31 32 33 34 35 36 37 38 39 40 41 42 43 44 45 46 47 48 49 50

000
ASUS43 KGLD 280808
RWRGLD

GOODLAND FORECAST AREA HOURLY WEATHER ROUNDUP
NATIONAL WEATHER SERVICE GOODLAND KS
200 AM MDT THU APR 28 2016

...OFFICIAL OBSERVATIONS...

CITY           SKY/WX    TMP DP  RH WIND       PRES   REMARKS
GOODLAND KS    CLOUDY    32  30  92 NW6       29.90F
HILL CITY KS   CLEAR     39  33  79 NW12      29.88S
IMPERIAL NEB   CLEAR     33  29  85 NW10      29.91R
MCCOOK NEB     CLEAR     34  29  82 NW17      29.88S
AKRON CO       CLOUDY    29  25  85 NW7       29.92R
BURLINGTON CO  CLOUDY    35  30  82 NW6       29.92R
LIMON CO       CLOUDY    35  27  72 N13       29.91F
$$

...UNOFFICIAL OBSERVATIONS...

CITY           SKY/WX    TMP DP  RH WIND       PRES   REMARKS
COLBY KS       CLOUDY    37  37 100 NW8       29.91S
GOVE KS          N/A     39  32  76 MISG        N/A
LENORA KS        N/A     36  32  85 MISG        N/A
NORTON KS      CLEAR     36  28  75 W13G20    29.87R
SHARON SPRINGS   N/A     39  33  78 NW10        N/A
TRIBUNE KS     CLOUDY    43  32  65 N10       29.92
KIT CARSON CO    N/A     39  29  67 MISG        N/A
YUMA CO          N/A     32  29  87 N6          N/A
$$




USA.gov is the U.S. government's official web portal to all federal, state and local government web resources and services.